DELTA 1 DEB, 29183

Orbit data source: Space-Track

DELTA 1 DEB, 29183 is space debris in LEO originally from a launch on Thu, 11 Jan 1968 UTC launched from the Air Force Western Test Range (AFWTR). Debris objects in space refer to the collection of defunct objects orbiting the Earth. Examples of debris include non-operational satellites, rocket bodies, and fragments generated from explosions, collisions, or faulty payload assembly.

Loading next visibility...
Identifier
29183, 1968-002G
Orbit
LEO
Country
Flag of USUS
Related business
Manufacturer
Unknown
Mission
Spacecraft
Bus & Motor
Unknown
Mass
Unknown
Launch date (UTC)
1968-01-11 (58 years ago)
Launch vehicle
Unknown
Launch site
Air Force Western Test Range (AFWTR)
Object type
Payload
Rocket body
Debris
Shape & HBR
Unknown shape, 0.1 m
Radar Cross Section
Small (<0.1 m²)

Expand to show TLE details & history
Last TLE update: 2 days ago

TLE from 2 days ago
0 DELTA 1 DEB
1 29183U 68002G   26174.42738609  .00001417  00000-0  24569-2 0  9999
2 29183 105.7920   4.8772 0222931 292.2011 184.1747 13.38300479 92363
Epoch: 2026-06-23T10:15Z
TLE epoch observation values (Epoch: 2026-06-23T10:15:26.158Z)
Latitude
59.80207°
Longitude
148.33682°
Altitude
1,292.078 km
Speed
7.135 km/s
True Right ascension
14h 15m 10s
True Declination
59° 39' 46"
Sunlit
Object was in daylight at epoch
Visualization orbit readout
Latitude
Unknown
Longitude
Unknown
Altitude
Unknown
Speed
Unknown
Apparent Right ascension
Unknown
Apparent Declination
Unknown
Sunlit
N/A
Visualization observer readout
Local Sidereal Time
09:56:47
Azimuth
Unknown
Elevation
Unknown
Doppler factor
Unknown
Orbital elements
Apogee altitude
1,280.343 km
Perigee altitude
946.326 km
Semi-major axis
7,491.472 km
Eccentricity
0.02229
Inclination
105.792°
RAAN
4.8772°
Arg. of periapsis
292.2011°
True anomaly
183.99376°
Mean anomaly
184.1747°
Eccentric anomaly
184.08374°
Mean motion
3.34728 °/min
Orbital period
107.55 mins
BSTAR
0.0024569
Loading maneuver chart data...
Computing Atmospheric mass density...
Loading historical data...
Loading historical data...
Loading historical data...
Loading historical data...
Loading historical data...
Loading historical data...
Loading historical data...

Documentation

Showing up to 5 results
|